AF5AA Weather Reports


Display with metric or nautical units.
time (UTC)temp
F
wind
direction
speed
MPH
gust
MPH
rain 1hr
in
rain 24hr
in
rain mn
in
humidity
%
barometer
mb
20260905150319 86 83 0.0 0.0 0.00 0.00 0.00 80 1014.3
20260905145816 85 120 0.0 0.0 0.00 0.00 0.00 80 1014.3
20260905145311 85 120 0.0 0.0 0.00 0.00 0.00 80 1014.2
20260905144810 85 123 0.0 0.0 0.00 0.00 0.00 81 1014.1
20260905144306 84 112 0.0 0.0 0.00 0.00 0.00 82 1014.3
20260905143804 84 108 0.0 0.0 0.00 0.00 0.00 83 1014.1
20260905143259 84 91 0.0 0.0 0.00 0.00 0.00 84 1014.0
20260905142757 83 117 0.0 0.0 0.00 0.00 0.00 86 1014.2
20260905142252 82 109 0.0 0.0 0.00 0.00 0.00 87 1014.2
20260905141748 82 115 0.0 0.0 0.00 0.00 0.00 88 1014.2
20260905141244 82 105 0.0 0.0 0.00 0.00 0.00 88 1014.2
20260905140739 81 98 0.0 0.0 0.00 0.00 0.00 89 1014.2
20260905140233 80 109 0.0 0.0 0.00 0.00 0.00 89 1014.2
20260905135732 80 117 0.0 0.0 0.00 0.00 0.00 91 1014.3
20260905135229 79 110 0.0 0.0 0.00 0.00 0.00 93 1014.3
20260905134728 79 110 0.0 0.0 0.00 0.00 0.00 94 1014.1
20260905134227 78 104 0.0 0.0 0.00 0.00 0.00 94 1014.1
20260905133722 78 103 0.0 0.0 0.00 0.00 0.00 95 1014.0
20260905133217 78 108 0.0 0.0 0.00 0.00 0.00 95 1014.1
20260905132716 78 112 0.0 0.0 0.00 0.00 0.00 96 1013.8
20260905132212 77 112 0.0 0.0 0.00 0.00 0.00 97 1014.1
20260905131707 77 112 0.0 0.0 0.00 0.00 0.00 97 1013.9
20260905131202 77 112 0.0 0.0 0.00 0.00 0.00 98 1014.3
20260905130656 76 112 0.0 0.0 0.00 0.00 0.00 99 1014.0
20260905130156 76 112 0.0 0.0 0.00 0.00 0.00 99 1014.2
20260905125650 76 112 0.0 0.0 0.00 0.00 0.00 99 1013.9
20260905125146 75 112 0.0 0.0 0.00 0.00 0.00 99 1014.0
20260905124642 75 112 0.0 0.0 0.00 0.00 0.00 99 1014.0
20260905124138 75 112 0.0 0.0 0.00 0.00 0.00 99 1013.9
20260905123633 75 112 0.0 0.0 0.00 0.00 0.00 99 1013.8
20260905123130 75 112 0.0 0.0 0.00 0.00 0.00 99 1013.8
20260905122630 75 108 0.0 0.0 0.00 0.00 0.00 99 1013.8
20260905122125 75 108 0.0 0.0 0.00 0.00 0.00 99 1013.5
20260905121619 75 108 0.0 0.0 0.00 0.00 0.00 99 1013.8
20260905121115 75 108 0.0 0.0 0.00 0.00 0.00 99 1013.6
20260905120614 75 108 0.0 0.0 0.00 0.00 0.00 99 1013.8
20260905120109 75 108 0.0 0.0 0.00 0.00 0.00 99 1013.6
20260905115608 75 109 0.0 0.0 0.00 0.00 0.00 99 1013.7
20260905115103 75 109 0.0 0.0 0.00 0.00 0.00 99 1013.4
20260905114602 74 109 0.0 0.0 0.00 0.00 0.00 99 1013.4
20260905114101 75 109 0.0 0.0 0.00 0.00 0.00 99 1013.5
20260905113556 75 109 0.0 0.0 0.00 0.00 0.00 99 1013.4
20260905113052 75 112 0.0 0.0 0.00 0.00 0.00 99 1013.2
20260905112547 75 114 0.0 0.0 0.00 0.00 0.00 99 1013.3
20260905112042 75 110 0.0 0.0 0.00 0.00 0.00 99 1013.0
20260905111537 75 110 0.0 0.0 0.00 0.00 0.00 99 1013.2
20260905111036 75 110 0.0 0.0 0.00 0.00 0.00 99 1013.2
20260905110535 75 110 0.0 0.0 0.00 0.00 0.00 99 1013.1
20260905110031 75 110 0.0 0.0 0.00 0.00 0.00 99 1013.1
20260905105531 75 110 0.0 0.0 0.00 0.00 0.00 99 1013.3
20260905105030 75 108 0.0 0.0 0.00 0.00 0.00 99 1013.0
20260905104526 75 108 0.0 0.0 0.00 0.00 0.00 99 1013.1
20260905104026 75 108 0.0 0.0 0.00 0.00 0.00 99 1013.3
20260905103521 74 108 0.0 0.0 0.00 0.00 0.00 99 1013.4
20260905103017 74 108 0.0 0.0 0.00 0.00 0.00 98 1013.3
20260905102513 74 106 0.0 0.0 0.00 0.00 0.00 98 1013.1
20260905102009 74 106 0.0 0.0 0.00 0.00 0.00 98 1013.1
20260905101507 75 106 0.0 0.0 0.00 0.00 0.00 98 1013.2
20260905101006 75 106 0.0 0.0 0.00 0.00 0.00 98 1013.1
20260905100502 75 106 0.0 0.0 0.00 0.00 0.00 98 1013.4
20260905100001 75 104 0.0 0.0 0.00 0.00 0.00 98 1013.1
20260905095456 75 104 0.0 0.0 0.00 0.00 0.00 98 1013.3
20260905094952 75 104 0.0 0.0 0.00 0.00 0.00 98 1013.2
20260905094447 75 106 0.0 0.0 0.00 0.00 0.00 98 1013.1
20260905093945 75 111 0.0 0.0 0.00 0.00 0.00 98 1013.1
20260905093441 75 111 0.0 0.0 0.00 0.00 0.00 98 1013.1
20260905092936 75 111 0.0 0.0 0.00 0.00 0.00 98 1013.1
20260905092432 75 112 0.0 0.0 0.00 0.00 0.00 98 1012.8
20260905091926 75 112 0.0 0.0 0.00 0.00 0.00 97 1013.0
20260905091421 75 112 0.0 0.0 0.00 0.00 0.00 97 1012.8
20260905090920 75 112 0.0 0.0 0.00 0.00 0.00 97 1012.8
20260905090416 75 119 0.0 0.0 0.00 0.00 0.00 97 1012.6
20260905085915 75 122 0.0 0.0 0.00 0.00 0.00 97 1012.6
20260905085414 75 115 0.0 0.0 0.00 0.00 0.00 97 1012.6
20260905084911 75 113 0.0 0.0 0.00 0.00 0.00 97 1012.6
20260905084409 75 108 0.0 0.0 0.00 0.00 0.00 97 1012.6
20260905083905 76 108 0.0 0.0 0.00 0.00 0.00 96 1012.6
20260905083401 76 108 0.0 0.0 0.00 0.00 0.00 96 1012.5
20260905082856 76 108 0.0 0.0 0.00 0.00 0.00 96 1012.4
20260905082352 76 108 0.0 0.0 0.00 0.00 0.00 96 1012.8
20260905081847 76 108 0.0 0.0 0.00 0.00 0.00 96 1012.8
20260905081342 76 108 0.0 0.0 0.00 0.00 0.00 96 1012.6
20260905080841 76 108 0.0 0.0 0.00 0.00 0.00 96 1012.8
20260905080341 76 108 0.0 0.0 0.00 0.00 0.00 96 1012.8
20260905075839 76 106 0.0 0.0 0.00 0.00 0.00 96 1013.0
20260905075334 76 104 0.0 0.0 0.00 0.00 0.00 96 1012.9
20260905074833 76 104 0.0 0.0 0.00 0.00 0.00 95 1012.8
20260905074329 76 104 0.0 0.0 0.00 0.00 0.00 95 1012.6
20260905073825 76 102 0.0 0.0 0.00 0.00 0.00 95 1013.2
20260905073319 76 101 0.0 0.0 0.00 0.00 0.00 95 1013.1
20260905072814 76 99 0.0 0.0 0.00 0.00 0.00 95 1013.1
20260905072309 77 113 0.0 0.0 0.00 0.00 0.00 94 1013.0
20260905071806 77 113 0.0 0.0 0.00 0.00 0.00 94 1013.0
20260905071302 77 113 0.0 0.0 0.00 0.00 0.00 94 1013.1
20260905070756 77 114 0.0 0.0 0.00 0.00 0.00 94 1013.3
20260905070252 77 114 0.0 0.0 0.00 0.00 0.00 94 1013.1
20260905065751 77 114 0.0 0.0 0.00 0.00 0.00 94 1013.2
20260905065245 77 114 0.0 0.0 0.00 0.00 0.00 93 1013.3
20260905064740 77 105 0.0 0.0 0.00 0.00 0.00 93 1013.4
20260905064236 77 104 0.0 0.0 0.00 0.00 0.00 93 1013.3
20260905063734 77 104 0.0 0.0 0.00 0.00 0.00 93 1013.5
20260905063230 77 104 0.0 0.0 0.00 0.00 0.00 93 1013.4
20260905062726 77 104 0.0 0.0 0.00 0.00 0.00 93 1013.3
20260905062225 77 104 0.0 0.0 0.00 0.00 0.00 93 1013.5
20260905061720 77 104 0.0 0.0 0.00 0.00 0.00 92 1013.1
20260905061215 77 104 0.0 0.0 0.00 0.00 0.00 92 1013.1
20260905060715 78 104 0.0 0.0 0.00 0.00 0.00 92 1013.1
20260905060212 78 104 0.0 0.0 0.00 0.00 0.00 91 1013.2
20260905055710 78 104 0.0 0.0 0.00 0.00 0.00 91 1012.9
20260905055205 78 104 0.0 0.0 0.00 0.00 0.00 91 1013.1
20260905054701 78 104 0.0 0.0 0.00 0.00 0.00 91 1013.2
20260905054157 78 104 0.0 0.0 0.00 0.00 0.00 91 1013.0
20260905053656 78 104 0.0 0.0 0.00 0.00 0.00 91 1013.1
20260905053151 78 104 0.0 0.0 0.00 0.00 0.00 91 1012.9
20260905052645 78 104 0.0 0.0 0.00 0.00 0.00 91 1012.6
20260905052140 78 104 0.0 0.0 0.00 0.00 0.00 90 1012.9
20260905051635 78 104 0.0 0.0 0.00 0.00 0.00 90 1013.0
20260905051132 78 104 0.0 0.0 0.00 0.00 0.00 89 1012.9
20260905050628 78 104 0.0 0.0 0.00 0.00 0.00 89 1013.0
20260905050125 78 104 0.0 0.0 0.00 0.00 0.00 89 1012.8
20260905045624 79 104 0.0 0.0 0.00 0.02 0.02 89 1012.9
20260905045120 79 104 0.0 0.0 0.00 0.02 0.02 89 1012.6
20260905044619 79 107 0.0 0.0 0.00 0.02 0.02 88 1012.8
20260905044114 79 107 0.0 0.0 0.00 0.02 0.02 89 1012.9
20260905043613 79 107 0.0 0.0 0.00 0.02 0.02 88 1012.8
20260905043109 79 104 0.0 0.0 0.00 0.02 0.02 87 1012.8
20260905042607 79 104 0.0 0.0 0.00 0.02 0.02 88 1012.8
20260905042102 79 104 0.0 0.0 0.00 0.02 0.02 87 1012.8
20260905041558 79 103 0.0 0.0 0.00 0.02 0.02 87 1012.6
20260905041053 79 102 0.0 0.0 0.00 0.02 0.02 87 1012.9
20260905040553 80 105 0.0 0.0 0.00 0.02 0.02 86 1012.8
20260905040051 80 105 0.0 0.0 0.00 0.02 0.02 87 1012.8
20260905035547 80 105 0.0 0.0 0.00 0.02 0.02 86 1013.0
20260905035044 80 105 0.0 0.0 0.00 0.02 0.02 87 1013.1
20260905034539 80 105 0.0 0.0 0.00 0.02 0.02 87 1013.0
20260905034038 80 105 0.0 0.0 0.00 0.02 0.02 86 1013.1
20260905033533 80 110 0.0 0.0 0.00 0.02 0.02 86 1013.2
20260905033029 80 112 0.0 0.0 0.00 0.02 0.02 85 1013.1
20260905032524 81 112 0.0 0.0 0.00 0.02 0.02 86 1013.0
20260905032019 81 112 0.0 0.0 0.00 0.02 0.02 85 1013.1
20260905031515 81 112 0.0 0.0 0.00 0.02 0.02 84 1013.0
20260905031014 81 112 0.0 0.0 0.00 0.02 0.02 86 1013.2
20260905030510 81 112 0.0 0.0 0.00 0.02 0.02 84 1013.0
20260905030009 81 112 0.0 0.0 0.00 0.02 0.02 83 1013.0
20260905025504 81 112 0.0 0.0 0.00 0.02 0.02 83 1012.8
20260905025001 81 112 0.0 0.0 0.00 0.02 0.02 83 1013.0
20260905024455 81 112 0.0 0.0 0.00 0.02 0.02 83 1012.9
20260905023951 81 112 0.0 0.0 0.00 0.02 0.02 83 1012.8
20260905023445 81 112 0.0 0.0 0.00 0.02 0.02 82 1012.5
20260905022944 82 112 0.0 0.0 0.00 0.02 0.02 82 1012.8
20260905022440 82 112 0.0 0.0 0.00 0.02 0.02 82 1012.6
20260905021935 82 112 0.0 0.0 0.00 0.02 0.02 81 1012.4
20260905021435 82 112 0.0 0.0 0.00 0.02 0.02 79 1012.4
20260905020930 82 112 0.0 0.0 0.00 0.02 0.02 79 1012.5
20260905020429 82 112 0.0 0.0 0.00 0.02 0.02 78 1012.2
20260905015924 83 112 0.0 0.0 0.00 0.02 0.02 79 1012.1
20260905015422 83 112 0.0 0.0 0.00 0.02 0.02 78 1011.8
20260905014922 83 112 0.0 0.0 0.00 0.02 0.02 79 1011.9
20260905014418 84 112 0.0 0.0 0.00 0.02 0.02 77 1011.8
20260905013912 84 114 0.0 0.0 0.00 0.02 0.02 76 1012.0
20260905013409 84 115 0.0 0.0 0.00 0.02 0.02 75 1011.7
20260905012904 84 115 0.0 0.0 0.00 0.02 0.02 76 1011.6
20260905012359 84 120 0.0 0.0 0.00 0.02 0.02 75 1011.6
20260905011856 85 109 0.0 0.0 0.00 0.02 0.02 74 1011.5
20260905011351 85 109 0.0 0.0 0.00 0.02 0.02 74 1011.6
20260905010847 85 109 0.0 0.0 0.00 0.02 0.02 72 1011.6
20260905010341 85 109 0.0 0.0 0.00 0.02 0.02 72 1011.6
20260905005838 86 109 0.0 0.0 0.00 0.02 0.02 72 1011.5
20260905005333 86 109 0.0 0.0 0.00 0.02 0.02 71 1011.5
20260905004828 86 109 0.0 0.0 0.00 0.02 0.02 70 1011.4
20260905004323 87 109 0.0 0.0 0.00 0.02 0.02 71 1011.4
20260905003818 87 109 0.0 0.0 0.00 0.02 0.02 70 1011.6
20260905003314 87 109 0.0 0.0 0.00 0.02 0.02 70 1011.5
20260905002815 87 109 0.0 0.0 0.00 0.02 0.02 69 1011.5
20260905002309 88 109 0.0 0.0 0.00 0.02 0.02 68 1011.6
20260905001804 88 109 0.0 0.0 0.00 0.02 0.02 67 1011.5
20260905001304 89 109 0.0 0.0 0.00 0.02 0.02 67 1011.5
20260905000759 89 109 0.0 0.0 0.00 0.02 0.02 65 1011.5
20260905000255 89 109 0.0 0.0 0.00 0.02 0.02 64 1011.4
20260904235750 90 109 0.0 0.0 0.00 0.02 0.02 63 1011.4
20260904235250 90 109 0.0 0.0 0.00 0.02 0.02 63 1011.2
20260904234745 90 109 0.0 0.0 0.00 0.02 0.02 62 1011.4
20260904234240 91 109 0.0 0.0 0.00 0.02 0.02 60 1011.3
20260904233736 91 111 0.0 0.0 0.00 0.02 0.02 61 1011.2
20260904233232 92 116 0.0 0.0 0.00 0.02 0.02 60 1011.4
20260904232728 92 115 0.0 0.0 0.00 0.02 0.02 58 1011.4
20260904232224 92 120 0.0 0.0 0.00 0.02 0.02 59 1011.4
20260904231720 92 104 0.0 0.0 0.00 0.02 0.02 61 1011.4
20260904231215 92 101 0.0 0.0 0.00 0.02 0.02 60 1011.4
20260904230715 92 104 0.0 0.0 0.00 0.02 0.02 57 1011.2
20260904230209 92 102 0.0 0.0 0.00 0.02 0.02 58 1011.2
20260904225708 92 108 0.0 0.0 0.00 0.02 0.02 58 1011.3
20260904225202 92 105 0.0 0.0 0.00 0.02 0.02 56 1011.5
20260904224656 92 102 0.0 0.0 0.00 0.02 0.02 57 1011.4
20260904224151 92 110 0.0 0.0 0.00 0.02 0.02 60 1011.4
20260904223650 93 107 0.0 0.0 0.00 0.02 0.02 57 1011.5
20260904223146 93 115 0.0 0.0 0.00 0.02 0.02 56 1011.3
20260904222642 93 106 0.0 0.0 0.00 0.02 0.02 57 1011.2
20260904222137 93 117 1.0 1.0 0.00 0.02 0.02 53 1011.4
20260904221636 93 92 0.0 1.0 0.00 0.02 0.02 53 1011.3
20260904221131 93 114 0.0 0.0 0.00 0.02 0.02 55 1011.3
20260904220626 93 118 0.0 0.0 0.00 0.02 0.02 55 1011.3
20260904220121 94 102 0.0 0.0 0.00 0.02 0.02 55 1011.6
20260904215616 94 109 0.0 0.0 0.00 0.02 0.02 53 1011.4
20260904215112 95 66 0.0 0.0 0.00 0.02 0.02 51 1011.3
20260904214607 95 140 0.0 0.0 0.00 0.02 0.02 51 1011.4
20260904214103 95 108 0.0 0.0 0.00 0.02 0.02 55 1011.7
20260904213600 95 107 0.0 0.0 0.00 0.02 0.02 52 1011.4
20260904213057 95 114 0.0 0.0 0.00 0.02 0.02 52 1011.5
20260904212556 95 83 0.0 0.0 0.00 0.02 0.02 51 1011.6
20260904212052 96 128 0.0 1.0 0.00 0.02 0.02 51 1011.7
20260904211551 96 117 0.0 0.0 0.00 0.02 0.02 50 1011.8
20260904211047 97 91 1.0 1.0 0.00 0.02 0.02 49 1012.0
20260904210546 96 141 0.0 0.0 0.00 0.02 0.02 49 1012.0
20260904210042 95 137 0.0 1.0 0.00 0.02 0.02 52 1012.0
20260904205537 94 136 0.0 0.0 0.00 0.02 0.02 54 1011.9
20260904205034 95 68 0.0 0.0 0.00 0.02 0.02 53 1012.0
20260904204530 95 209 1.0 1.0 0.00 0.02 0.02 51 1012.0
20260904204025 94 115 0.0 0.0 0.00 0.02 0.02 51 1012.0
20260904203521 95 131 2.0 2.0 0.00 0.02 0.02 53 1012.1
20260904203017 95 83 0.0 0.0 0.00 0.02 0.02 53 1012.1
20260904202513 94 96 0.0 0.0 0.00 0.02 0.02 56 1012.2
20260904202009 95 101 1.0 1.0 0.00 0.02 0.02 56 1012.4
20260904201504 94 105 0.0 0.0 0.00 0.02 0.02 54 1012.6
20260904200959 94 104 1.0 1.0 0.00 0.02 0.02 56 1012.6
20260904200457 94 122 0.0 0.0 0.00 0.02 0.02 53 1012.6
20260904195952 92 105 0.0 0.0 0.00 0.02 0.02 59 1012.9
20260904195451 93 107 0.0 0.0 0.00 0.02 0.02 62 1012.8
20260904194950 95 119 0.0 0.0 0.00 0.02 0.02 53 1013.0
20260904194445 94 128 0.0 0.0 0.00 0.02 0.02 54 1013.2
20260904193940 93 72 1.0 1.0 0.00 0.02 0.02 57 1013.2
20260904193435 92 113 0.0 0.0 0.00 0.02 0.02 56 1013.1
20260904192931 92 72 0.0 1.0 0.00 0.02 0.02 57 1013.3
20260904192426 92 108 0.0 0.0 0.00 0.02 0.02 56 1013.4
20260904191922 93 110 0.0 0.0 0.00 0.02 0.02 56 1013.6
20260904191419 92 122 0.0 0.0 0.00 0.02 0.02 57 1013.6
20260904190915 91 104 0.0 0.0 0.00 0.02 0.02 60 1013.5
20260904190410 92 102 0.0 0.0 0.00 0.02 0.02 59 1013.6
20260904185906 92 105 1.0 1.0 0.00 0.02 0.02 59 1013.8
20260904185402 93 109 0.0 0.0 0.00 0.02 0.02 56 1013.6
20260904184902 92 125 0.0 0.0 0.00 0.02 0.02 58 1013.7
20260904184356 91 92 0.0 0.0 0.00 0.02 0.02 59 1013.9
20260904183852 92 128 1.0 1.0 0.00 0.02 0.02 58 1013.9
20260904183346 91 149 1.0 1.0 0.00 0.02 0.02 59 1014.1
20260904182842 89 96 0.0 0.0 0.00 0.02 0.02 64 1013.9
20260904182337 90 112 0.0 0.0 0.00 0.02 0.02 63 1013.9
20260904181833 92 118 1.0 2.0 0.00 0.02 0.02 61 1013.9
20260904181332 91 100 0.0 0.0 0.00 0.02 0.02 60 1014.1
20260904180828 91 113 0.0 0.0 0.00 0.02 0.02 58 1014.0
20260904180323 91 113 0.0 0.0 0.00 0.02 0.02 58 1014.4
20260904175822 91 106 0.0 1.0 0.00 0.02 0.02 62 1014.3
20260904175321 91 93 0.0 0.0 0.00 0.02 0.02 62 1014.6
20260904174821 91 16 1.0 1.0 0.00 0.02 0.02 60 1014.5
20260904174317 91 138 1.0 2.0 0.00 0.02 0.02 60 1014.7
20260904173813 91 127 2.0 2.0 0.00 0.02 0.02 60 1014.5
20260904173308 91 90 0.0 0.0 0.00 0.02 0.02 61 1014.6
20260904172804 91 82 0.0 1.0 0.00 0.02 0.02 60 1014.4
20260904172305 91 55 0.0 1.0 0.00 0.02 0.02 60 1014.6
20260904171758 91 113 0.0 0.0 0.00 0.02 0.02 61 1014.8
20260904171253 90 98 0.0 0.0 0.00 0.02 0.02 60 1014.9
20260904170750 90 98 0.0 0.0 0.00 0.02 0.02 67 1015.2
20260904170245 88 116 0.0 0.0 0.00 0.02 0.02 67 1015.4
20260904165744 88 93 0.0 0.0 0.00 0.02 0.02 67 1015.2
20260904165238 88 120 0.0 1.0 0.00 0.02 0.02 68 1015.4
20260904164733 88 114 0.0 1.0 0.00 0.02 0.02 71 1015.1
20260904164228 88 113 0.0 0.0 0.00 0.02 0.02 69 1015.3
20260904163724 88 126 0.0 1.0 0.00 0.02 0.02 68 1015.3
20260904163219 87 104 0.0 0.0 0.00 0.02 0.02 73 1015.2
20260904162718 86 71 0.0 1.0 0.00 0.02 0.02 75 1015.3
20260904162213 86 102 0.0 0.0 0.00 0.02 0.02 75 1015.5
20260904161709 87 100 0.0 0.0 0.00 0.02 0.02 70 1015.2
20260904161204 87 114 0.0 0.0 0.00 0.02 0.02 72 1015.5
20260904160700 87 115 1.0 1.0 0.00 0.02 0.02 76 1015.5
20260904160155 86 134 0.0 1.0 0.00 0.02 0.02 75 1015.4
20260904155650 86 64 0.0 1.0 0.00 0.02 0.02 78 1015.3
20260904155149 85 81 0.0 0.0 0.00 0.02 0.02 78 1015.3
20260904154648 85 106 0.0 0.0 0.00 0.02 0.02 84 1015.3
20260904154148 85 119 0.0 0.0 0.00 0.02 0.02 80 1015.1
20260904153643 85 124 1.0 1.0 0.00 0.02 0.02 82 1015.2
20260904153138 84 127 0.0 1.0 0.00 0.02 0.02 82 1015.3
20260904152635 84 101 0.0 0.0 0.00 0.02 0.02 86 1015.2
20260904152130 84 102 0.0 0.0 0.00 0.02 0.02 87 1015.3
20260904151625 83 95 0.0 0.0 0.00 0.02 0.02 87 1015.2
20260904151123 83 113 0.0 0.0 0.00 0.02 0.02 88 1015.2